Date String (YYYY-MM-DD hh:mm:ss) UTC,Instrument flags,Ambient pressure (hPa),Sample flow (lpm),Bypass flow (lpm),Sample temperature (°C),Ambient temperature (°C),ASC tube jacket temperature (°C),LED temperature (°C),Box temperature (°C),Sample RH (%),Span deviation,Mass concentration (μg/m³),Mass concentration (μg/m³),Mass concentration (μg/m³)
DateTimeUTC,F1_M11,P_M11,Q1_M11,Q2_M11,T1_M11,T2_M11,T3_M11,T4_M11,T5_M11,U1_M11,ZSPAN_M11,X0_M11,X2_M11,X1_M11
2021-10-19 07:00:00,,0817.9,5.01,0.00,30.0,29.0,00.0,39.2,31.7,11.2,0000.0,0012.02,0004.31,0002.75
2021-10-19 07:01:00,,0818.0,5.00,0.00,30.0,29.0,00.0,39.2,31.7,11.1,0000.0,0012.06,0004.26,0002.71
2021-10-19 07:02:00,,0818.0,4.99,0.00,30.0,29.0,00.0,39.2,31.7,11.0,0000.0,0011.59,0004.20,0002.68
2021-10-19 07:03:00,,0818.0,5.01,0.00,30.0,29.0,00.0,39.2,31.7,11.0,0000.0,0011.39,0004.18,0002.66
2021-10-19 07:04:00,,0818.0,5.00,0.00,30.0,29.0,00.0,39.2,31.7,11.0,0000.0,0011.35,0004.10,0002.62
2021-10-19 07:05:00,,0817.9,4.99,0.00,30.0,29.0,00.0,39.2,31.7,11.0,0000.0,0011.68,0004.09,0002.60
2021-10-19 07:06:00,,0817.9,5.01,0.00,30.0,29.0,00.0,39.2,31.7,11.0,0000.0,0011.18,0004.06,0002.58
2021-10-19 07:07:00,,0817.9,5.00,0.00,30.0,28.9,00.0,39.2,31.7,11.0,0000.0,0010.48,0003.98,0002.58
2021-10-19 07:08:00,,0818.0,5.00,0.00,30.0,28.9,00.0,39.2,31.7,11.0,0000.0,0011.50,0003.97,0002.57
2021-10-19 07:09:00,,0818.0,5.00,0.00,30.0,28.9,00.0,39.2,31.6,11.0,0000.0,0012.30,0003.97,0002.57
2021-10-19 07:10:00,,0818.0,5.01,0.00,30.0,28.9,00.0,39.2,31.7,11.0,0000.0,0013.04,0003.97,0002.57
2021-10-19 07:11:00,,0818.0,5.01,0.00,30.0,28.9,00.0,39.1,31.7,11.1,0000.0,0013.21,0004.01,0002.58
2021-10-19 07:12:00,,0818.0,4.99,0.00,30.0,28.9,00.0,39.1,31.7,11.1,0000.0,0012.99,0004.02,0002.59
2021-10-19 07:13:00,,0818.0,4.99,0.00,30.0,28.9,00.0,39.1,31.6,11.1,0000.0,0013.12,0004.03,0002.63
2021-10-19 07:14:00,,0818.0,5.01,0.00,30.0,28.9,00.0,39.1,31.7,11.2,0000.0,0013.50,0004.05,0002.66
2021-10-19 07:15:00,,0818.0,4.99,0.00,30.0,28.9,00.0,39.1,31.7,11.2,0000.0,0013.68,0004.18,0002.71
2021-10-19 07:16:00,,0818.0,5.01,0.00,30.0,28.9,00.0,39.1,31.6,11.3,0000.0,0013.40,0004.24,0002.77
2021-10-19 07:17:00,,0818.0,4.99,0.00,30.0,28.9,00.0,39.1,31.6,11.3,0000.0,0014.22,0004.31,0002.81
2021-10-19 07:18:00,,0818.0,5.00,0.00,29.9,28.9,00.0,39.1,31.6,11.3,0000.0,0014.48,0004.29,0002.86
2021-10-19 07:19:00,,0818.0,5.00,0.00,29.9,28.9,00.0,39.1,31.7,11.4,0000.0,0013.71,0004.35,0002.92
2021-10-19 07:20:00,,0818.0,5.01,0.00,29.9,28.9,00.0,39.1,31.7,11.6,0000.0,0013.61,0004.45,0002.98
2021-10-19 07:21:00,,0818.0,5.00,0.00,29.9,28.9,00.0,39.1,31.7,11.6,0000.0,0013.38,0004.54,0003.06
2021-10-19 07:22:00,,0818.0,5.00,0.00,29.9,28.9,00.0,39.1,31.7,11.5,0000.0,0013.39,0004.58,0003.13
2021-10-19 07:23:00,,0818.0,4.99,0.00,29.9,28.9,00.0,39.1,31.7,11.5,0000.0,0014.59,0004.68,0003.17
2021-10-19 07:24:00,,0818.0,5.01,0.00,29.9,28.9,00.0,39.1,31.6,11.5,0000.0,0014.60,0004.81,0003.20
2021-10-19 07:25:00,,0818.0,5.00,0.00,29.9,28.9,00.0,39.1,31.6,11.5,0000.0,0014.35,0004.86,0003.22
2021-10-19 07:26:00,,0818.0,4.98,0.00,29.9,28.9,00.0,39.1,31.6,11.5,0000.0,0014.24,0004.87,0003.24
2021-10-19 07:27:00,,0818.0,5.01,0.00,29.9,28.9,00.0,39.1,31.6,11.5,0000.0,0015.18,0004.89,0003.25
2021-10-19 07:28:00,,0818.0,4.99,0.00,29.9,28.9,00.0,39.1,31.6,11.5,0000.0,0015.12,0004.84,0003.27
2021-10-19 07:29:00,,0818.0,5.00,0.00,29.9,28.9,00.0,39.1,31.6,11.5,0000.0,0016.25,0004.92,0003.28
2021-10-19 07:30:00,,0818.1,5.01,0.00,29.9,28.9,00.0,39.1,31.6,11.5,0000.0,0017.33,0004.94,0003.29
2021-10-19 07:31:00,,0818.0,5.00,0.00,29.9,28.9,00.0,39.1,31.6,11.6,0000.0,0017.96,0004.98,0003.30
2021-10-19 07:32:00,,0818.0,5.00,0.00,29.9,28.9,00.0,39.1,31.7,11.6,0000.0,0018.27,0004.97,0003.29
2021-10-19 07:33:00,,0818.0,5.02,0.00,29.9,28.9,00.0,39.1,31.7,11.6,0000.0,0018.90,0004.99,0003.28
2021-10-19 07:34:00,,0818.0,4.99,0.00,29.9,28.9,00.0,39.1,31.6,11.6,0000.0,0018.63,0005.02,0003.28
2021-10-19 07:35:00,,0818.0,5.01,0.00,29.9,28.9,00.0,39.1,31.6,11.6,0000.0,0019.25,0005.01,0003.28
2021-10-19 07:36:00,,0818.0,5.01,0.00,29.9,28.9,00.0,39.1,31.6,11.6,0000.0,0019.59,0004.96,0003.28
2021-10-19 07:37:00,,0818.0,4.99,0.00,29.9,28.9,00.0,39.1,31.6,11.5,0000.0,0020.37,0004.96,0003.29
2021-10-19 07:38:00,,0818.0,5.00,0.00,29.9,28.9,00.0,39.1,31.6,11.4,0000.0,0020.47,0004.95,0003.27
2021-10-19 07:39:00,,0818.0,5.00,0.00,29.9,28.9,00.0,39.1,31.6,11.4,0000.0,0020.49,0004.98,0003.26
2021-10-19 07:40:00,,0818.0,5.00,0.00,29.9,28.9,00.0,39.1,31.6,11.4,0000.0,0019.80,0004.96,0003.25
2021-10-19 07:41:00,,0818.0,5.00,0.00,29.9,28.9,00.0,39.1,31.6,11.4,0000.0,0019.37,0005.00,0003.24
2021-10-19 07:42:00,,0818.0,4.99,0.00,29.9,28.9,00.0,39.1,31.6,11.4,0000.0,0018.04,0004.98,0003.23
2021-10-19 07:43:00,,0818.0,5.01,0.00,29.9,28.9,00.0,39.1,31.6,11.3,0000.0,0017.16,0004.90,0003.21
2021-10-19 07:44:00,,0818.0,4.99,0.00,29.9,28.8,00.0,39.1,31.6,11.2,0000.0,0016.22,0004.84,0003.19
2021-10-19 07:45:00,,0818.0,5.01,0.00,29.9,28.8,00.0,39.1,31.6,11.1,0000.0,0015.56,0004.75,0003.15
2021-10-19 07:46:00,,0818.0,5.01,0.00,29.9,28.8,00.0,39.1,31.6,11.2,0000.0,0015.46,0004.66,0003.12
2021-10-19 07:47:00,,0818.0,4.98,0.00,29.9,28.8,00.0,39.1,31.6,11.2,0000.0,0015.14,0004.64,0003.09
2021-10-19 07:48:00,,0818.0,5.01,0.00,29.9,28.8,00.0,39.1,31.6,11.2,0000.0,0014.84,0004.64,0003.04
2021-10-19 07:49:00,,0818.0,4.99,0.00,29.9,28.8,00.0,39.1,31.6,11.1,0000.0,0014.77,0004.65,0003.02
2021-10-19 07:50:00,,0818.0,5.01,0.00,29.9,28.8,00.0,39.1,31.5,11.0,0000.0,0014.39,0004.65,0002.99
2021-10-19 07:51:00,,0818.0,4.99,0.00,29.8,28.8,00.0,39.1,31.5,11.0,0000.0,0013.37,0004.61,0002.95
2021-10-19 07:52:00,,0818.0,5.01,0.00,29.8,28.8,00.0,39.0,31.5,10.9,0000.0,0013.42,0004.51,0002.90
2021-10-19 07:53:00,,0818.0,4.99,0.00,29.8,28.8,00.0,39.0,31.5,10.9,0000.0,0013.72,0004.42,0002.85
2021-10-19 07:54:00,,0817.9,4.99,0.00,29.8,28.8,00.0,39.0,31.5,10.9,0000.0,0014.26,0004.33,0002.80
2021-10-19 07:55:00,,0817.9,5.01,0.00,29.8,28.7,00.0,39.0,31.4,10.9,0000.0,0014.70,0004.27,0002.75
2021-10-19 07:56:00,,0817.8,4.99,0.00,29.8,28.7,00.0,39.0,31.5,10.9,0000.0,0015.09,0004.25,0002.75
2021-10-19 07:57:00,,0817.8,5.00,0.00,29.8,28.7,00.0,39.0,31.4,10.9,0000.0,0014.18,0004.28,0002.73
2021-10-19 07:58:00,,0817.8,5.00,0.00,29.8,28.7,00.0,39.0,31.4,10.9,0000.0,0014.34,0004.28,0002.71
2021-10-19 07:59:00,,0817.7,4.99,0.00,29.8,28.7,00.0,39.0,31.4,10.9,0000.0,0014.34,0004.20,0002.67
